EN

Hourly Weather Godziszowa

Today, 16 May, Sunday

Time Temperature Precipitation Wind Pressure Humidity
00:00 +10°C° 0.1 mm 2 mps 737 mmHg 92%
01:00 +10°C° 0 mm 1 mps 737 mmHg 92%
02:00 +10°C° 0 mm 1 mps 737 mmHg 92%
03:00 +10°C° 0 mm 1 mps 737 mmHg 92%
04:00 +9°C° 0 mm 1 mps 736 mmHg 92%
05:00 +9°C° 0 mm 2 mps 737 mmHg 90%
06:00 +10°C° 0 mm 2 mps 737 mmHg 87%
07:00 +11°C° 0 mm 3 mps 737 mmHg 85%
08:00 +12°C° 0.3 mm 3 mps 737 mmHg 82%
09:00 +13°C° 0.3 mm 3 mps 738 mmHg 78%
10:00 +13°C° 0.3 mm 3 mps 738 mmHg 75%
11:00 +14°C° 0.2 mm 3 mps 738 mmHg 71%
12:00 +15°C° 0.2 mm 4 mps 738 mmHg 66%
13:00 +15°C° 0.2 mm 4 mps 738 mmHg 62%
14:00 +15°C° 0 mm 4 mps 737 mmHg 62%
15:00 +17°C° 0 mm 4 mps 737 mmHg 61%
16:00 +17°C° 0 mm 3 mps 737 mmHg 61%
17:00 +16°C° 0 mm 3 mps 737 mmHg 66%
18:00 +14°C° 0 mm 2 mps 737 mmHg 71%
19:00 +13°C° 0 mm 2 mps 737 mmHg 76%
20:00 +12°C° 0 mm 2 mps 737 mmHg 80%
21:00 +10°C° 0 mm 2 mps 737 mmHg 84%
22:00 +9°C° 0 mm 2 mps 737 mmHg 88%
23:00 +9°C° 0 mm 2 mps 737 mmHg 88%

Tomorrow, 17 May, Monday

Time Temperature Precipitation Wind Pressure Humidity
00:00 +9°C° 0 mm 2 mps 737 mmHg 88%
01:00 +8°C° 0 mm 2 mps 737 mmHg 88%
02:00 +8°C° 0 mm 2 mps 737 mmHg 88%
03:00 +8°C° 0 mm 2 mps 737 mmHg 88%
04:00 +9°C° 0 mm 2 mps 736 mmHg 88%
05:00 +9°C° 0.1 mm 2 mps 737 mmHg 87%
06:00 +10°C° 0.1 mm 2 mps 737 mmHg 87%
07:00 +12°C° 0.1 mm 1 mps 737 mmHg 86%
08:00 +12°C° 0.1 mm 1 mps 737 mmHg 87%
09:00 +12°C° 0.1 mm 1 mps 737 mmHg 87%
10:00 +13°C° 0.1 mm 1 mps 737 mmHg 87%
11:00 +13°C° 0.2 mm 1 mps 737 mmHg 85%
12:00 +13°C° 0.2 mm 1 mps 737 mmHg 83%
13:00 +14°C° 0.2 mm 1 mps 738 mmHg 81%
14:00 +14°C° 0.6 mm 2 mps 738 mmHg 82%
15:00 +14°C° 0.6 mm 2 mps 738 mmHg 83%
16:00 +13°C° 0.6 mm 3 mps 738 mmHg 84%
17:00 +12°C° 0.4 mm 3 mps 738 mmHg 86%
18:00 +12°C° 0.4 mm 4 mps 738 mmHg 88%
19:00 +11°C° 0.4 mm 4 mps 738 mmHg 89%
20:00 +10°C° 0 mm 5 mps 738 mmHg 90%
21:00 +9°C° 0 mm 5 mps 739 mmHg 90%
22:00 +9°C° 0 mm 5 mps 739 mmHg 91%
23:00 +8°C° 0 mm 5 mps 739 mmHg 90%

Day after tomorrow, 18 May, Tuesday

Time Temperature Precipitation Wind Pressure Humidity
00:00 +8°C° 0 mm 5 mps 739 mmHg 90%
01:00 +7°C° 0 mm 5 mps 740 mmHg 90%
02:00 +7°C° 0 mm 4 mps 740 mmHg 90%
03:00 +6°C° 0 mm 4 mps 740 mmHg 91%
04:00 +6°C° 0 mm 4 mps 740 mmHg 92%
05:00 +7°C° 0 mm 4 mps 740 mmHg 89%
06:00 +8°C° 0 mm 4 mps 740 mmHg 87%
07:00 +9°C° 0 mm 5 mps 741 mmHg 85%
08:00 +10°C° 0 mm 5 mps 741 mmHg 81%
09:00 +10°C° 0 mm 6 mps 741 mmHg 78%
10:00 +11°C° 0 mm 6 mps 741 mmHg 74%
11:00 +13°C° 0.1 mm 6 mps 741 mmHg 71%
12:00 +14°C° 0.1 mm 6 mps 741 mmHg 67%
13:00 +15°C° 0.1 mm 6 mps 741 mmHg 63%
14:00 +15°C° 0.3 mm 6 mps 741 mmHg 68%
15:00 +14°C° 0.3 mm 6 mps 741 mmHg 73%
16:00 +14°C° 0.3 mm 6 mps 741 mmHg 77%
17:00 +13°C° 0.3 mm 5 mps 741 mmHg 81%
18:00 +12°C° 0.3 mm 5 mps 742 mmHg 85%
19:00 +11°C° 0.3 mm 4 mps 742 mmHg 88%
20:00 +10°C° 0 mm 4 mps 742 mmHg 90%
21:00 +9°C° 0 mm 3 mps 743 mmHg 92%
22:00 +8°C° 0 mm 3 mps 743 mmHg 94%
23:00 +8°C° 0 mm 3 mps 743 mmHg 93%

19 May, Wednesday

Time Temperature Precipitation Wind Pressure Humidity
00:00 +6°C° 0 mm 4 mps 743 mmHg 92%
01:00 +6°C° 0 mm 4 mps 744 mmHg 92%
02:00 +6°C° 0 mm 4 mps 744 mmHg 92%
03:00 +5°C° 0 mm 3 mps 744 mmHg 93%
04:00 +5°C° 0 mm 3 mps 744 mmHg 94%
05:00 +7°C° 0 mm 3 mps 744 mmHg 91%
06:00 +7°C° 0 mm 4 mps 744 mmHg 89%
07:00 +8°C° 0 mm 4 mps 744 mmHg 87%
08:00 +8°C° 0.1 mm 4 mps 744 mmHg 88%
09:00 +8°C° 0.1 mm 4 mps 745 mmHg 89%
10:00 +8°C° 0.1 mm 4 mps 745 mmHg 89%
11:00 +8°C° 0.2 mm 4 mps 745 mmHg 90%
12:00 +8°C° 0.2 mm 5 mps 745 mmHg 91%
13:00 +7°C° 0.2 mm 5 mps 745 mmHg 92%
14:00 +8°C° 0.1 mm 5 mps 745 mmHg 88%
15:00 +9°C° 0.1 mm 5 mps 745 mmHg 84%
16:00 +11°C° 0.1 mm 4 mps 745 mmHg 80%
17:00 +11°C° 0.2 mm 4 mps 745 mmHg 83%
18:00 +10°C° 0.2 mm 3 mps 745 mmHg 85%
19:00 +10°C° 0.2 mm 3 mps 745 mmHg 88%
20:00 +9°C° 0 mm 3 mps 745 mmHg 90%
21:00 +8°C° 0 mm 3 mps 745 mmHg 92%
22:00 +7°C° 0 mm 3 mps 745 mmHg 94%
23:00 +7°C° 0 mm 3 mps 745 mmHg 94%

20 May, Thursday

Time Temperature Precipitation Wind Pressure Humidity
00:00 +6°C° 0 mm 2 mps 745 mmHg 94%
01:00 +6°C° 0 mm 2 mps 745 mmHg 94%
02:00 +6°C° 0 mm 2 mps 745 mmHg 94%
03:00 +5°C° 0 mm 3 mps 746 mmHg 94%
04:00 +4°C° 0 mm 3 mps 746 mmHg 94%
05:00 +7°C° 0 mm 3 mps 746 mmHg 91%
06:00 +7°C° 0 mm 4 mps 746 mmHg 88%
07:00 +10°C° 0 mm 4 mps 746 mmHg 85%
08:00 +10°C° 0.2 mm 5 mps 746 mmHg 81%
09:00 +12°C° 0.2 mm 5 mps 747 mmHg 78%
10:00 +13°C° 0.2 mm 5 mps 747 mmHg 74%
11:00 +13°C° 0.3 mm 5 mps 747 mmHg 71%
12:00 +13°C° 0.3 mm 5 mps 747 mmHg 68%
13:00 +14°C° 0.3 mm 5 mps 747 mmHg 64%
14:00 +14°C° 0.1 mm 5 mps 747 mmHg 63%
15:00 +14°C° 0.1 mm 5 mps 746 mmHg 62%
16:00 +14°C° 0.1 mm 5 mps 746 mmHg 61%
17:00 +13°C° 0.1 mm 4 mps 746 mmHg 66%
18:00 +12°C° 0.1 mm 3 mps 746 mmHg 72%
19:00 +11°C° 0.1 mm 3 mps 746 mmHg 77%
20:00 +10°C° 0 mm 3 mps 747 mmHg 80%
21:00 +8°C° 0 mm 3 mps 747 mmHg 83%
22:00 +7°C° 0 mm 3 mps 747 mmHg 86%
23:00 +7°C° 0 mm 3 mps 747 mmHg 86%

21 May, Friday

Time Temperature Precipitation Wind Pressure Humidity
00:00 +7°C° 0 mm 3 mps 747 mmHg 87%
01:00 +7°C° 0 mm 3 mps 747 mmHg 88%
02:00 +5°C° 0 mm 3 mps 746 mmHg 89%
03:00 +5°C° 0 mm 3 mps 746 mmHg 90%
04:00 +6°C° 0 mm 2 mps 746 mmHg 91%
05:00 +8°C° 0 mm 2 mps 746 mmHg 85%
06:00 +10°C° 0 mm 2 mps 746 mmHg 78%
07:00 +12°C° 0 mm 2 mps 746 mmHg 72%
08:00 +13°C° 0.1 mm 3 mps 745 mmHg 68%
09:00 +14°C° 0.1 mm 4 mps 745 mmHg 63%
10:00 +15°C° 0.1 mm 4 mps 745 mmHg 58%
11:00 +16°C° 0 mm 5 mps 744 mmHg 55%
12:00 +17°C° 0 mm 5 mps 744 mmHg 52%
13:00 +17°C° 0 mm 5 mps 743 mmHg 49%
14:00 +17°C° 0 mm 5 mps 743 mmHg 51%
15:00 +18°C° 0 mm 4 mps 742 mmHg 54%
16:00 +18°C° 0 mm 4 mps 742 mmHg 57%
17:00 +17°C° 0 mm 4 mps 741 mmHg 62%
18:00 +16°C° 0 mm 3 mps 741 mmHg 67%
19:00 +14°C° 0 mm 3 mps 740 mmHg 72%
20:00 +14°C° 0 mm 3 mps 740 mmHg 71%
21:00 +13°C° 0 mm 4 mps 740 mmHg 70%
22:00 +13°C° 0 mm 4 mps 739 mmHg 70%
23:00 +13°C° 0.1 mm 3 mps 739 mmHg 76%
Show more